DW3195 Weather Reports


time (UTC)temp
F
wind
direction
speed
knots
gust
knots
rain 1hr
in
rain 24hr
in
rain mn
in
humidity
%
barometer
mb
20260506033505 65 336 5.2 8.7 0.00 0.02 0.01 53 920.7
20260506033006 65 317 3.5 12.2 0.00 0.02 0.01 53 920.6
20260506031505 65 333 4.3 13.0 0.00 0.02 0.01 52 920.6
20260506031006 65 333 6.1 13.0 0.00 0.02 0.01 52 920.5
20260506030505 64 352 3.5 7.0 0.00 0.02 0.01 52 920.4
20260506024505 64 335 5.2 13.0 0.00 0.02 0.01 51 920.8
20260506024005 64 357 4.3 13.0 0.00 0.02 0.01 51 920.7
20260506023505 64 342 3.5 8.7 0.00 0.02 0.01 52 920.8
20260506023004 64 348 4.3 8.7 0.00 0.02 0.01 52 920.9
20260506021504 64 350 3.5 10.4 0.00 0.02 0.01 52 920.8
20260506021005 63 332 2.6 6.1 0.00 0.02 0.01 53 920.9
20260506020504 62 330 4.3 7.8 0.00 0.02 0.01 54 920.9
20260506020005 63 55 1.7 10.4 0.00 0.02 0.01 59 920.9
20260506014004 62 73 0.9 4.3 0.00 0.02 0.01 58 921.0
20260506013505 62 358 1.7 5.2 0.00 0.02 0.01 58 921.1
20260506011504 65 312 3.5 7.8 0.00 0.02 0.01 51 921.0
20260506011005 65 353 2.6 7.0 0.00 0.02 0.01 50 921.0
20260506010006 65 0 2.6 7.8 0.01 0.02 0.01 50 921.0
20260506004506 66 11 1.7 7.0 0.01 0.02 0.01 50 921.1
20260506003506 67 325 0.9 4.3 0.01 0.02 0.01 53 921.1
20260506003006 67 345 2.6 6.1 0.01 0.02 0.01 50 921.0
20260506001505 68 339 2.6 7.8 0.00 0.02 0.00 50 921.1
20260506001006 68 337 2.6 5.2 0.00 0.02 0.00 50 921.1
20260506000506 68 300 2.6 5.2 0.01 0.02 0.01 50 921.1
20260505234506 69 331 3.5 7.0 0.00 0.01 0.00 49 920.8
20260505234005 69 304 2.6 6.1 0.00 0.01 0.00 48 920.8
20260505233506 69 314 2.6 4.3 0.00 0.01 0.00 47 920.8
20260505233005 69 326 0.9 6.1 0.00 0.01 0.00 49 920.8
20260505231505 70 309 1.7 7.0 0.00 0.01 0.00 47 921.0
20260505230506 70 288 1.7 2.6 0.00 0.01 0.00 46 920.9
20260505230006 70 318 1.7 6.1 0.00 0.01 0.00 46 920.9
20260505224006 71 292 1.7 5.2 0.00 0.01 0.00 45 921.0
20260505223005 71 324 3.5 7.0 0.00 0.01 0.00 44 920.9
20260505220506 73 318 2.6 10.4 0.00 0.01 0.00 43 920.8
20260505220005 72 321 4.3 7.8 0.00 0.01 0.00 43 920.8
20260505214505 73 277 4.3 8.7 0.00 0.01 0.00 41 920.8
20260505214006 73 270 2.6 6.1 0.00 0.01 0.00 41 920.8
20260505213505 73 263 2.6 5.2 0.00 0.01 0.00 42 920.8
20260505213006 73 326 3.5 8.7 0.00 0.01 0.00 40 920.9
20260505211506 73 286 1.7 4.3 0.00 0.01 0.00 40 920.9
20260505211005 73 295 2.6 4.3 0.00 0.01 0.00 39 921.0
20260505210006 73 284 2.6 7.0 0.00 0.01 0.00 40 921.0
20260505204505 74 272 2.6 6.1 0.00 0.01 0.00 38 921.1
20260505204006 75 289 2.6 7.8 0.00 0.01 0.00 37 921.1
20260505203506 75 303 3.5 7.8 0.00 0.01 0.00 37 921.2
20260505203005 75 268 4.3 8.7 0.00 0.01 0.00 36 921.2
20260505201505 74 273 4.3 10.4 0.00 0.01 0.00 38 921.2
20260505201005 74 300 4.3 11.3 0.00 0.01 0.00 39 921.3
20260505200505 74 261 2.6 7.0 0.00 0.01 0.00 42 921.4
20260505200005 74 292 4.3 10.4 0.00 0.01 0.00 40 921.6
20260505194505 73 307 5.2 11.3 0.00 0.01 0.00 41 921.8
20260505194005 73 314 4.3 10.4 0.00 0.01 0.00 41 921.9
20260505193005 73 304 4.3 11.3 0.00 0.01 0.00 39 922.0
20260505191505 74 288 4.3 8.7 0.00 0.01 0.00 39 922.1
20260505191005 73 307 2.6 6.1 0.00 0.01 0.00 41 922.2
20260505190505 72 301 3.5 8.7 0.00 0.01 0.00 39 922.1
20260505190005 72 322 4.3 11.3 0.00 0.01 0.00 39 922.3
20260505184504 72 308 5.2 12.2 0.00 0.01 0.00 39 922.7
20260505184005 72 310 6.1 13.0 0.00 0.01 0.00 40 922.6
20260505183505 72 304 5.2 12.2 0.00 0.01 0.00 38 922.7
20260505183005 72 298 4.3 10.4 0.00 0.01 0.00 40 922.7
20260505181506 72 283 3.5 10.4 0.00 0.01 0.00 44 923.0
20260505181005 72 311 2.6 7.0 0.00 0.01 0.00 42 923.0
20260505180005 71 289 2.6 10.4 0.00 0.01 0.00 44 923.0
20260505174504 71 287 4.3 10.4 0.00 0.01 0.00 42 923.3
20260505174005 71 313 5.2 7.8 0.00 0.01 0.00 44 923.3
20260505173004 71 284 3.5 8.7 0.00 0.01 0.00 47 923.4
20260505171505 70 294 3.5 8.7 0.00 0.01 0.00 50 923.5
20260505171005 69 275 2.6 7.8 0.00 0.01 0.00 47 923.5
20260505170505 69 324 2.6 7.0 0.00 0.01 0.00 47 923.6
20260505164505 69 313 2.6 7.0 0.00 0.01 0.00 49 923.7
20260505164005 69 282 3.5 7.8 0.00 0.01 0.00 46 923.7
20260505163504 69 277 4.3 7.0 0.00 0.01 0.00 47 923.8
20260505163004 69 292 3.5 7.8 0.00 0.01 0.00 46 923.9
20260505161505 69 273 4.3 7.8 0.00 0.01 0.00 46 924.0
20260505161005 69 293 3.5 7.8 0.00 0.01 0.00 47 924.2
20260505160505 69 276 4.3 11.3 0.00 0.01 0.00 49 924.3
20260505153006 67 283 6.1 10.4 0.00 0.01 0.00 48 924.3
20260505151506 68 262 4.3 11.3 0.00 0.01 0.00 50 924.6
20260505151006 67 308 4.3 10.4 0.00 0.01 0.00 50 924.7
20260505150506 67 325 5.2 8.7 0.00 0.01 0.00 49 924.8
20260505140506 65 288 5.2 11.3 0.00 0.02 0.00 53 924.6
20260505124006 59 283 1.7 6.1 0.00 0.02 0.00 64 924.2
20260505121505 47 266 0.9 2.6 0.00 0.02 0.00 98 923.9
20260505121005 46 358 0.0 2.6 0.00 0.02 0.00 98 923.9
20260505120506 45 225 0.0 1.7 0.00 0.02 0.00 98 923.9
20260505120006 45 263 0.0 1.7 0.00 0.02 0.00 97 923.9
20260505114505 44 112 0.0 0.9 0.00 0.02 0.00 98 923.7
20260505114006 44 188 0.9 2.6 0.00 0.02 0.00 98 923.6
20260505113505 44 100 0.9 2.6 0.00 0.02 0.00 98 923.6
20260505113006 43 139 1.7 2.6 0.00 0.02 0.00 99 923.5
20260505111505 41 165 0.0 0.9 0.00 0.02 0.00 98 923.6
20260505111005 41 110 0.0 1.7 0.00 0.02 0.00 98 923.6
20260505110505 42 118 0.0 1.7 0.00 0.02 0.00 98 923.6
20260505101005 40 177 0.0 1.7 0.00 0.02 0.00 96 923.1
20260505100505 41 336 0.0 1.7 0.00 0.02 0.00 96 923.0
20260505094504 41 350 0.9 1.7 0.00 0.02 0.00 96 923.0
20260505093505 41 20 0.9 1.7 0.00 0.02 0.00 96 923.1
20260505093005 41 350 0.0 1.7 0.00 0.02 0.00 96 923.1
20260505091504 41 352 0.9 2.6 0.00 0.02 0.00 96 923.0
20260505091005 41 356 0.9 2.6 0.00 0.02 0.00 96 923.0
20260505090505 41 16 0.9 1.7 0.00 0.02 0.00 96 923.1
20260505090004 41 79 0.9 1.7 0.00 0.02 0.00 96 923.0
20260505084505 41 149 0.9 1.7 0.00 0.02 0.00 95 923.1
20260505084004 41 103 0.9 1.7 0.00 0.02 0.00 95 923.1
20260505083505 41 151 0.0 1.7 0.00 0.02 0.00 95 923.1
20260505083005 41 3 0.9 1.7 0.00 0.02 0.00 94 923.2
20260505081504 41 32 0.0 0.9 0.00 0.02 0.00 94 923.2
20260505081005 41 104 0.0 0.9 0.00 0.02 0.00 94 923.1
20260505080505 41 146 0.0 0.9 0.00 0.02 0.00 93 923.1
20260505080004 42 67 0.0 0.9 0.00 0.02 0.00 93 923.2
20260505074504 42 5 0.0 1.7 0.00 0.02 0.00 92 922.9
20260505074005 42 137 0.9 0.9 0.00 0.02 0.00 92 922.9
20260505073504 43 145 0.0 0.9 0.00 0.02 0.00 91 922.9
20260505073004 43 179 0.0 1.7 0.00 0.02 0.00 90 922.9
20260505071004 44 175 0.0 0.9 0.00 0.02 0.00 88 922.6
20260505070504 45 164 0.0 0.9 0.00 0.02 0.00 87 922.7
20260505070004 45 127 0.0 1.7 0.00 0.02 0.00 87 922.6
20260505064504 47 119 0.0 1.7 0.00 0.02 0.00 85 922.6
20260505064005 47 34 0.9 1.7 0.00 0.02 0.00 84 922.6
20260505063506 48 87 0.9 1.7 0.00 0.02 0.00 83 922.5
20260505063006 48 145 0.9 1.7 0.00 0.02 0.00 82 922.5
20260505061505 51 55 0.9 1.7 0.00 0.02 0.00 78 922.4
20260505061006 52 25 0.9 1.7 0.00 0.02 0.00 76 922.4
20260505060006 54 78 0.9 4.3 0.00 0.02 0.00 72 922.4
20260505054506 55 343 1.7 4.3 0.00 0.02 0.00 68 922.1
20260505054006 56 354 1.7 4.3 0.00 0.02 0.00 67 922.2
20260505053506 57 1 1.7 4.3 0.00 0.02 0.00 67 922.2
20260505051006 60 305 2.6 7.0 0.00 0.02 0.00 58 922.0
20260505050505 59 280 5.2 10.4 0.00 0.02 0.00 58 922.0
20260505041505 58 275 1.7 5.2 0.01 0.02 0.00 65 921.6
20260505041006 57 311 2.6 6.1 0.01 0.02 0.00 65 921.6
20260505040006 56 302 2.6 7.0 0.00 0.01 0.00 68 921.6
20260505034505 55 333 1.7 5.2 0.00 0.01 0.01 72 921.8
20260505034005 55 205 0.9 2.6 0.00 0.01 0.01 72 921.8